Location: Kergonan
(48.2337°N, 4.5518°W)
Time: 22:02:06
(UTC+00:00)

Lacrosse 5 rocket - Pass Details

Date: 18 January 2020
Orbit: 465 x 632 km, 57.0° (Epoch: 27 February)

Event Time Altitude Azimuth Distance (km) Brightness Sun altitude
Exits shadow 05:11:04 37° 33° (NNE) 988 2.8 -28.0°
Drops below altitude 10° 05:13:57 10° 50° (NE) 1,993 4.7 -27.5°
Sets 05:16:15 0° 54° (NE) 2,883 5.8 -27.1°
